Weather History for KDKK - March, 2014

Change the Weather History Date:

Saturday, March 15, 2014

  Actual Average Record
Temperature  
Mean Temperature 35 °F -  
Max Temperature 45 °F 44 °F 80 °F (1990)
Min Temperature 21 °F 27 °F 0 °F (1960)
Degree Days  
Heating Degree Days 30    
Moisture  
Dew Point 26 °F    
Average Humidity 73    
Maximum Humidity 85    
Minimum Humidity 56    
Precipitation  
Precipitation 0.00 in - - ()
Sea Level Pressure  
Sea Level Pressure 29.92 in    
Wind  
Wind Speed 18 mph (West)    
Max Wind Speed 23 mph    
Max Gust Speed 37 mph    
Visibility 10 miles    
Events      
Averages and records for this station are not official NWS values.
T = Trace of Precipitation, MM = Missing Value Source: NWS Daily Summary

Daily Weather History Graph

Daily Weather History Graph

Search for Another Location

Airport or City:

Trip Planner

Search our weather history database for the weather conditions in past years. The results will help you decide how hot, cold, wet, or windy it might be!

Date:

Astronomy

Mar. 15, 2014 Rise Set
Actual Time 7:29 AM EDT 7:23 PM EDT
Civil Twilight 7:01 AM EDT 7:51 PM EDT
Nautical Twilight 6:28 AM EDT 8:24 PM EDT
Astronomical Twilight 5:55 AM EDT 8:57 PM EDT
Moon 6:41 PM EDT (3/15) 6:40 AM EDT (3/15)
Length of Visible Light 12h 50m
Length of Day
11h 54m
Waxing Gibbous, 99% of the Moon is Illuminated
Mar 15
Waxing Gibbous
Mar 16
Full
Mar 23
Last Quarter
Mar 30
New
Apr 7
First Quarter

Hourly Weather History & Observations

Time (EDT) Temp. Windchill Dew Point Humidity Pressure Visibility Wind Dir Wind Speed Gust Speed Precip Events Conditions
12:53 AM 45.0 °F 36.4 °F 34.0 °F 65% 29.65 in 10.0 mi WSW 23.0 mph 34.5 mph N/A   Overcast
1:53 AM 42.1 °F 34.2 °F 32.0 °F 67% 29.66 in 10.0 mi WSW 16.1 mph 28.8 mph N/A   Mostly Cloudy
2:53 AM 39.9 °F 30.2 °F 30.9 °F 70% 29.67 in 10.0 mi WSW 20.7 mph 36.8 mph N/A   Mostly Cloudy
3:53 AM 39.0 °F 29.6 °F 30.0 °F 70% 29.68 in 10.0 mi WSW 18.4 mph 33.4 mph N/A   Mostly Cloudy
4:53 AM 37.9 °F 27.6 °F 28.9 °F 70% 29.69 in 10.0 mi WSW 20.7 mph 32.2 mph N/A   Overcast
5:53 AM 37.0 °F 26.4 °F 28.9 °F 73% 29.72 in 10.0 mi WSW 20.7 mph 32.2 mph N/A   Overcast
6:09 AM 37.0 °F 26.7 °F 30.0 °F 76% 29.72 in 10.0 mi WSW 19.6 mph 28.8 mph N/A   Overcast
6:53 AM 37.0 °F 26.2 °F 30.0 °F 76% 29.74 in 10.0 mi WSW 21.9 mph 28.8 mph N/A   Overcast
7:53 AM 37.0 °F 26.7 °F 30.0 °F 76% 29.77 in 10.0 mi WSW 19.6 mph 27.6 mph N/A   Overcast
8:53 AM 36.0 °F 25.6 °F 30.0 °F 79% 29.80 in 10.0 mi SW 18.4 mph 29.9 mph N/A   Overcast
9:53 AM 36.0 °F 24.7 °F 30.0 °F 79% 29.83 in 10.0 mi WSW 21.9 mph 31.1 mph N/A   Overcast
10:53 AM 36.0 °F 25.3 °F 30.9 °F 82% 29.86 in 9.0 mi WSW 19.6 mph 26.5 mph N/A   Overcast
11:04 AM 36.0 °F 25.0 °F 30.9 °F 82% 29.85 in 9.0 mi WSW 20.7 mph 29.9 mph N/A   Overcast
11:41 AM 35.1 °F 23.5 °F 30.9 °F 85% 29.86 in 8.0 mi WSW 21.9 mph 28.8 mph N/A   Overcast
11:53 AM 35.1 °F 24.1 °F 30.9 °F 85% 29.88 in 8.0 mi WSW 19.6 mph - N/A   Overcast
12:53 PM 34.0 °F 23.8 °F 30.0 °F 85% 29.91 in 7.0 mi WSW 16.1 mph 24.2 mph N/A   Overcast
1:50 PM 33.8 °F 25.8 °F 28.4 °F 81% 29.94 in 9.0 mi West 10.4 mph 21.9 mph 0.00 in   Overcast
1:53 PM 34.0 °F 25.5 °F 28.9 °F 82% 29.96 in 10.0 mi West 11.5 mph 21.9 mph 0.00 in   Overcast
2:53 PM 33.1 °F 25.5 °F 26.1 °F 75% 29.99 in 10.0 mi WNW 9.2 mph 19.6 mph 0.00 in   Overcast
3:10 PM 32.0 °F 23.6 °F 25.0 °F 75% 29.98 in 10.0 mi West 10.4 mph 20.7 mph N/A   Overcast
3:27 PM 32.0 °F 21.6 °F 24.1 °F 73% 29.99 in 10.0 mi West 15.0 mph 25.3 mph N/A   Overcast
3:53 PM 32.0 °F 21.2 °F 23.0 °F 69% 30.04 in 10.0 mi West 16.1 mph 24.2 mph N/A   Overcast
4:02 PM 32.0 °F 22.1 °F 23.0 °F 69% 30.02 in 10.0 mi West 13.8 mph 23.0 mph N/A   Overcast
4:53 PM 30.9 °F 21.2 °F 21.9 °F 69% 30.06 in 10.0 mi West 12.7 mph 24.2 mph N/A   Overcast
5:53 PM 30.0 °F 19.5 °F 16.0 °F 56% 30.10 in 10.0 mi WNW 13.8 mph 24.2 mph N/A   Clear
6:53 PM 28.9 °F 21.1 °F 16.0 °F 58% 30.14 in 10.0 mi WNW 8.1 mph - N/A   Clear
7:53 PM 28.0 °F 20.0 °F 18.0 °F 66% 30.16 in 10.0 mi NW 8.1 mph - N/A   Mostly Cloudy
8:53 PM 27.0 °F 18.7 °F 18.0 °F 69% 30.18 in 10.0 mi NW 8.1 mph - N/A   Partly Cloudy
9:53 PM 26.1 °F 17.6 °F 17.1 °F 69% 30.21 in 10.0 mi NW 8.1 mph - N/A   Overcast
10:53 PM 25.0 °F 16.3 °F 16.0 °F 69% 30.22 in 10.0 mi NNW 8.1 mph - N/A   Mostly Cloudy
11:53 PM 21.9 °F 10.4 °F 14.0 °F 72% 30.23 in 10.0 mi NNW 11.5 mph - N/A   Partly Cloudy